Regional Weather Roundup
Issued by NWS

Home | Current Version | Previous Version | Text Only | Print | Product List | Glossary On
Versions: 1 2 3 4 5 6 7 8 9 10 11 12 13 14 15 16 17 18 19 20 21 22 23 24 25 26 27 28 29 30 31 32 33 34 35 36 37 38 39 40 41 42 43 44 45 46 47 48 49 50
000
ASUS44 KLIX 011411
RWRLA
LOUISIANA WEATHER ROUNDUP
NATIONAL WEATHER SERVICE NEW ORLEANS LA
900 AM CDT TUE SEP 01 2015

NOTE: "FAIR" INDICATES FEW OR NO CLOUDS BELOW 12,000 FEET WITH NO
      SIGNIFICANT WEATHER AND/OR OBSTRUCTIONS TO VISIBILITY.
      SKY/WX - SKY CONDITION AND SIGNIFICANT WEATHER.
      TMP - AIR TEMPERATURE.    DP   - DEWPOINT TEMPERATURE.
      RH  - RELATIVE HUMIDITY.  PRES - PRESSURE.
      HX  - HEAT INDEX.         WCI  - WIND CHILL INDEX.

*  THESE STATIONS ARE NOT NWS OR FAA STATIONS AND ARE NOT UNDER
   NWS QUALITY CONTROL.

LAZ040-048-061>063-065-066-069-011500-
SOUTHEAST LOUISIANA

CITY           SKY/WX    TMP DP  RH WIND       PRES   REMARKS
N.O. AUDUBON     N/A     87  72  61 MISG        N/A
N.O. INTL ARPT PTSUNNY   83  71  67 VRB5      30.08R
N.O. LAKEFRONT SUNNY     82  70  66 E5        30.09R
N.O. DOWNTOWN* FAIR      84  70  61 CALM      30.09R
RESERVE*       FAIR      82  75  79 N3        30.09R
SLIDELL        SUNNY     79  74  84 CALM      30.08R
BATON ROUGE    MOSUNNY   81  72  74 NE5       30.09R
BOOTHVILLE     MOSUNNY   84  73  69 NE7       30.07R
BELLE CHASSE   MOSUNNY   83  72  69 E3        30.08R
BOGALUSA*      NOT AVBL
GALLIANO*      MOSUNNY   84  74  70 CALM      30.08R
NEW ROADS*     FAIR      79  73  82 NE3       30.09R
GONZALES*      PTSUNNY   79  75  87 CALM      30.09R
HAMMOND*       SUNNY     81  70  69 CALM      30.10R
HOUMA*         MOSUNNY   81  75  83 NE9       30.09R
PORT FOURCHON* SUNNY     84  72  65 VRB3      30.09R

$$

LAZ041-044-053-054-011500-
SOUTHWEST LOUISIANA

CITY           SKY/WX    TMP DP  RH WIND       PRES   REMARKS
LAKE CHARLES   CLOUDY    77  72  84 E7        30.07R
LAFAYETTE      PTSUNNY   80  74  81 E3        30.08R
PATTERSON      MOSUNNY   81  73  78 E5        30.10R
SALT POINT       N/A     82  75  79 VRB6      30.06R
NEW IBERIA     MOSUNNY   81  74  79 E6        30.09R
CHENAULT AIRPK NOT AVBL

$$

LAZ027-028-011500-
CENTRAL LOUISIANA

CITY           SKY/WX    TMP DP  RH WIND       PRES   REMARKS
FORT POLK      CLOUDY    77  74  91 NW5       30.06S
ALEXANDRIA INT CLOUDY    78  74  87 CALM      30.07R
ALEXANDRIA     CLOUDY    78  72  81 CALM      30.09R

$$

LAZ001-002-011500-
NORTHWEST LOUISIANA

CITY           SKY/WX    TMP DP  RH WIND       PRES   REMARKS
SHREVEPORT     CLOUDY    78  70  76 CALM      30.08R
BARKSDALE AFB  MOSUNNY   76  69  79 CALM      30.08R
DTN SHREVEPORT CLOUDY    77  70  79 CALM      30.08R

$$

LAZ014-016-011500-
NORTHEAST LOUISIANA

CITY           SKY/WX    TMP DP  RH WIND       PRES   REMARKS
MONROE         PTSUNNY   81  71  71 CALM      30.09R
TALLULAH       MOSUNNY   81  71  71 CALM      30.08R

$$



USA.gov is the U.S. government's official web portal to all federal, state and local government web resources and services.